Location: El Águila
(10.4167°N, 66.7167°W)
Time: 05:10:24
(UTC+00:00)

NOSS 3-1 (C) - Pass Details

Date: 02 October 2022
Orbit: 703 x 1505 km, 63.4° (Epoch: 16 November)

Event Time Altitude Azimuth Distance (km) Brightness Sun altitude
Rises 22:30:02 0° 343° (NNW) 4,316 7.1 -4.1°
Reaches altitude 10° 22:32:49 10° 347° (NNW) 3,430 6.5 -4.8°
Maximum altitude 22:41:22 61° 66° (ENE) 1,642 4.4 -6.9°
Drops below altitude 10° 22:50:27 10° 145° (SE) 3,646 6.2 -9.1°
Sets 22:53:29 0° 148° (SSE) 4,600 6.7 -9.9°
